Other Public Products
Issued by NWS Grand Forks, ND

Home | Current Version | Previous Version | Text Only | Print | Product List | Glossary On
Versions: 1 2 3 4 5 6 7 8 9 10 11 12 13 14 15 16 17 18 19 20 21 22 23 24 25 26 27 28 29 30 31 32 33 34 35 36 37 38 39 40 41 42 43 44 45 46 47 48 49 50
000
FPUS83 KFGF 180931
OPUFGF
PRAIRIE TO PINES WEATHER ROUNDUP
NATIONAL WEATHER SERVICE EASTERN NORTH DAKOTA/GRAND FORKS ND
300 AM CST MON DEC 18 2017

 **SATELLITE DATA USED TO AUGMENT SKY COVER AT AUTOMATED STATIONS**
 *****  WEATHER ACROSS EASTERN NORTH DAKOTA  *****

CITY           SKY/WX    TMP DP  RH WIND       PRES   REMARKS
GRAND FORKS    FAIR      27  25  92 S13       29.64F WCI  16
GRND FORKS AFB FAIR      32  26  78 SW12      29.62F WCI  23
GRND FORKS NWS   N/A     27 N/A N/A S7          N/A  WCI  19
BUXTON           N/A     28  28  99 S8          N/A  WCI  20
DEVILS LAKE    FAIR      30  24  78 SW12      29.61S WCI  20
FARGO          CLOUDY    33  30  88 S13G22    29.70F WCI  24
WAHPETON ARPT  CLOUDY    32  30  93 S10       29.74F WCI  24
$$

 *****  WEATHER ACROSS CENTRAL AND WESTERN NORTH DAKOTA  *****

CITY           SKY/WX    TMP DP  RH WIND       PRES   REMARKS
JAMESTOWN      FAIR      32  26  78 SW10      29.66F WCI  24
BISMARCK       FAIR      29  22  75 SW5       29.69F WCI  24
MINOT          CLOUDY    37  24  59 SW14      29.58F
MINOT AFB      FAIR      34  24  67 SW8       29.57S
GARRISON         N/A     28  24  85 SW3       29.63R
WILLISTON      FAIR      36  22  56 SW10      29.60F
DICKINSON      FAIR      32  21  64 W14       29.66R WCI  22
HETTINGER      FAIR      30  20  66 W9        29.73S WCI  22
$$

 *****  OTHER OBSERVATIONS NORTHEAST NORTH DAKOTA  *****

CITY           SKY/WX    TMP DP  RH WIND       PRES   REMARKS
WALHALLA       FAIR      34  25  69 W16G24    29.53F WCI  23
LANGDON        NOT AVBL
CAVALIER       FAIR      32  25  74 SW9       29.56S WCI  24
GRAFTON        NOT AVBL
CANDO          CLOUDY    27  27 100 SW9       29.59F WCI  17
FORT TOTTEN      N/A     31  23  72 SW7       29.95S WCI  24
ROLLA          CLOUDY    30  25  80 W23       29.54R WCI  17
RUGBY          NOT AVBL
 ***** THE ABOVE OBSERVATIONS ARE NON NWS ARE NOT QUALITY
        CONTROLLED AND MAY MIS-REPORT RAIN FOR SNOW...
$$

 *****  OTHER OBSERVATIONS SOUTHEAST NORTH DAKOTA *****

CITY           SKY/WX    TMP DP  RH WIND       PRES   REMARKS
COOPERSTOWN    FAIR      30  27  86 SW15      29.64F WCI  19
VALLEY CITY    NOT AVBL
OAKES            N/A     28  28 100 S10       29.71F WCI  19
GWINNER          N/A     32  30  93 SW14      29.71F WCI  22
BUFFALO          N/A     31  27  86 SE13        N/A  WCI  21
WYNDMERE       NOT AVBL
 ***** THE ABOVE OBSERVATIONS ARE NON NWS ARE NOT QUALITY
       CONTROLLED AND MAY MIS-REPORT RAIN FOR SNOW...
$$

  *****  WEATHER ACROSS NORTHERN MINNESOTA  *****

CITY           SKY/WX    TMP DP  RH WIND       PRES   REMARKS
FLAG ISLAND    FAIR      25  23  93 S9        29.56F WCI  15
WARROAD        FAIR      28  27  93 S12G18    29.59F WCI  18
ROSEAU         FAIR      30  27  86 S18       29.58F WCI  18
HALLOCK        FAIR      27  25  93 S14       29.59S WCI  15
THF RVR FALLS  FAIR      29  27  92 S14       29.65F WCI  18
HALSTAD        NOT AVBL
FOSSTON        FAIR      28  27  93 S13       29.68F WCI  18
BAUDETTE       CLOUDY    27  24  89 S14       29.62F WCI  16
WASKISH        MOCLDY    28  27  93 S9        29.66F WCI  20
CROOKSTON      FAIR      28  28 100 S15       29.66F WCI  17
$$
  *****  WEATHER ACROSS CENTRAL AND WEST MINNESOTA  *****

CITY           SKY/WX    TMP DP  RH WIND       PRES   REMARKS
BEMIDJI        FAIR      28  27  96 S8        29.68F FOG     WCI  19
PARK RAPIDS    MOCLDY    26  23  88 S8        29.71F FOG     WCI  18
WADENA         MOCLDY    27  27 100 S7        29.73F FOG     WCI  19
DETROIT LAKES  FAIR      28  28 100 SE7       29.71F FOG     WCI  21
MOORHEAD       MOCLDY    32  28  86 S10       29.71F WCI  24
FERGUS FALLS   MOCLDY    30  30 100 S10       29.77F WCI  21
ELBOW LAKE     CLOUDY    30  29  96 S12       29.76F WCI  20
MORRIS MN      CLOUDY    30  28  93 S10       29.76F WCI  21
STAPLES        CLOUDY    25  25 100 S7        29.75F FOG     WCI  17
WHEATON        CLOUDY    34  28  80 S8        29.78S
$$
  *****  WEATHER ELSEWHERE ACROSS MINNESOTA  *****

CITY           SKY/WX    TMP DP  RH WIND       PRES   REMARKS
DULUTH         CLOUDY    23  23 100 SW8       29.78F FOG     WCI  14
INTRNTL FALLS  CLOUDY    26  22  84 VRB7      29.68F FOG     WCI  18
ELY            CLOUDY    23  23 100 S8        29.73F WCI  14
CLOQUET        CLOUDY    23  19  86 S5        29.79F WCI  17
BRAINERD       CLOUDY    26  22  84 S8        29.77F FOG     WCI  18
HIBBING        CLOUDY    24  23  96 S5        29.76F WCI  18
ALEXANDRIA     FAIR      29  27  92 S12       29.78F WCI  19
SAINT CLOUD    CLOUDY    25  23  92 SE6       29.83F FOG     WCI  18
MINNEAPOLIS    CLOUDY    26  25  96 S5        29.88F FOG     WCI  20
$$

  *****  WEATHER ACROSS SOUTH DAKOTA  *****

CITY           SKY/WX    TMP DP  RH WIND       PRES   REMARKS
SIOUX FALLS    FAIR      29  25  85 SW9       29.84F WCI  20
BROOKINGS      FAIR      29  25  85 S9        29.81F WCI  20
WATERTOWN      CLOUDY    30  28  92 S9        29.76F WCI  22
HURON          FAIR      27  25  92 MISG      29.80S
SISSETON         N/A     36  30  79 SW10      29.74F
ABERDEEN       FAIR      26  25  96 S9        29.76F WCI  17
MITCHELL       FAIR      29  26  89 S7        29.83S WCI  22
PIERRE         FAIR      28  25  88 W13       29.80R WCI  17
MOBRIDGE       FAIR      30  23  75 SW3       29.72S
RAPID CITY     FAIR      30  19  63 SW7       29.82F WCI  23
$$

  *****  SOME WEATHER IN NEARBY STATES *****

CITY           SKY/WX    TMP DP  RH WIND       PRES   REMARKS
GLASGOW MT     FAIR      31  22  69 NW6       29.62F
GREAT FALLS MT FAIR      42  25  50 SW31G44   29.65F
CHEYENNE WY    FAIR      28  16  60 W9        29.93F WCI  19
SCOTTSBLUFF NE FAIR      22  13  68 CALM      29.93F
OMAHA NE       FAIR      25  21  85 SE9       29.98S WCI  15
DES MOINES IA  FAIR      27  24  89 SW7       29.97S FOG     WCI  19
DAVENPORT IA   CLOUDY    38  38 100 W9        29.97S FOG
CHICAGO IL     CLOUDY    43  39  86 SW8       29.92F
EAU CLAIRE WI  CLOUDY    27  26  96 SW3       29.88F FOG
LA CROSSE WI   CLOUDY    31  29  92 CALM      29.91F FOG
$$

  *****  SOME NATIONAL WEATHER *****

CITY           SKY/WX    TMP DP  RH WIND       PRES   REMARKS
LA GUARDIA NY  LGT RAIN  35  28  75 E8        30.15F
RALEIGH NC     FAIR      40  38  93 CALM      30.17S
ATLANTA GA     FOG       47  47 100 NE5       30.16F VSB 1/2
NEW ORLEANS LA CLOUDY    67  67 100 S7        30.12S
OKLAHOMA CITY  FOG       40  40 100 SW10      30.13R VSB 1/8
ALBUQUERQUE NM FAIR      34  30  85 N6        30.14R
SALT LAKE CITY FAIR      28  22  78 SE6       30.27R WCI  22
LOS ANGELES CA FAIR      59  21  23 N5        30.07R
BOISE ID       CLOUDY    37  26  64 CALM      30.21F
SEATTLE WA     LGT RAIN  49  46  90 S21G28    29.96S FOG
$$

*** WEATHER ACROSS MANITOBA...SASKATCHEWAN AND ONTARIO ***
                ***ONTARIO***

CITY           SKY/WX    TMP DP  RH WIND       PRES   REMARKS
GERALDTON      CLOUDY    23  21  93 SW8       29.70F WCI  14
THUNDER BAY    CLOUDY    23  21  93 W7        29.79F WCI  15
SIOUX LOOKOUT  CLOUDY    23  21  93 S10G17    29.58F WCI  12
TORONTO        CLOUDY    21  18  86 NE3       29.97F
BIG TROUT LK   CLOUDY    21  21 100 S13G21    29.36F WCI   9
PICKLE LAKE    NOT AVBL
DRYDEN         CLOUDY    25  23  93 S16       29.58F WCI  12
KENORA         FLURRIES  25  23  93 S16       29.54F WCI  12
$$
                *** MANITOBA***

CITY           SKY/WX    TMP DP  RH WIND       PRES   REMARKS
BRANDON        CLOUDY    28  25  86 SW16      29.50R WCI  17
DAUPHIN        CLEAR     32  25  74 SW18G24   29.41R WCI  20
ISLAND LAKE    NOT AVBL
PILOT MOUND      N/A     27  23  86 SW10        N/A  WCI  17
THE PAS        CLEAR     30  23  74 W17G23    29.17F WCI  18
THOMPSON       FLURRIES  25  23  93 SW8       29.02F WCI  16
WINNIPEG       CLOUDY    30  23  74 S15G21    29.50F WCI  19
LYNN LAKE      LGT SNOW  21  19  93 NW13G20   29.03R WCI   9
CHURCHILL      LGT SNOW   9   7  92 SE12      29.20F DRFTSNOWWCI  -6
GILLAM         LGT SNOW  21  19  93 S7        29.08F WCI  13
$$
                ***SASKATCHEWAN***

CITY           SKY/WX    TMP DP  RH WIND       PRES   REMARKS
ESTEVAN        MOCLDY    32  25  74 SW10G17   29.55S WCI  24
KINDERSLEY     CLOUDY    28  19  69 SW8       29.52S WCI  20
LLOYDMINSTER   CLOUDY    27  19  74 W14G20    29.45R WCI  15
PRINCE ALBERT  CLEAR     28  21  74 W10       29.40R WCI  19
REGINA         PTCLDY    27  23  86 SW8       29.50S WCI  18
YORKTON        PTCLDY    27  23  86 SW14      29.42S WCI  15
N. BATTLEFORD  PTCLDY    28  18  64 W8        29.47S WC


USA.gov is the U.S. government's official web portal to all federal, state and local government web resources and services.